TimeCDT,TemperatureF,Dew PointF,Humidity,Sea Level PressureIn,VisibilityMPH,Wind Direction,Wind SpeedMPH,Gust SpeedMPH,PrecipitationIn,Events,Conditions,WindDirDegrees,DateUTC
12:51 AM,84.0,66.0,55,29.92,10.0,SSW,4.6,-,N/A,,Clear,210,2013-09-03 05:51:00
1:51 AM,82.0,66.9,60,29.91,10.0,SW,3.5,-,N/A,,Clear,230,2013-09-03 06:51:00
2:51 AM,81.0,66.9,62,29.91,10.0,Calm,Calm,-,N/A,,Clear,0,2013-09-03 07:51:00
3:51 AM,79.0,68.0,69,29.91,10.0,Calm,Calm,-,N/A,,Clear,0,2013-09-03 08:51:00
4:51 AM,78.1,68.0,71,29.91,10.0,Calm,Calm,-,N/A,,Clear,0,2013-09-03 09:51:00
5:51 AM,77.0,68.0,74,29.92,10.0,Calm,Calm,-,N/A,,Clear,0,2013-09-03 10:51:00
6:51 AM,75.0,69.1,82,29.93,10.0,Calm,Calm,-,N/A,,Clear,0,2013-09-03 11:51:00
7:51 AM,75.9,69.1,79,29.94,10.0,Calm,Calm,-,N/A,,Clear,0,2013-09-03 12:51:00
8:51 AM,81.0,68.0,65,29.96,10.0,Variable,3.5,-,N/A,,Partly Cloudy,0,2013-09-03 13:51:00
9:51 AM,84.9,66.9,55,29.98,10.0,Calm,Calm,-,N/A,,Clear,0,2013-09-03 14:51:00
10:51 AM,90.0,64.9,43,29.98,10.0,Variable,3.5,-,N/A,,Clear,0,2013-09-03 15:51:00
11:51 AM,93.0,64.9,39,29.97,10.0,Variable,3.5,-,N/A,,Clear,0,2013-09-03 16:51:00
12:51 PM,97.0,63.0,32,29.95,10.0,Variable,3.5,-,N/A,,Clear,0,2013-09-03 17:51:00
1:51 PM,102.0,61.0,26,29.93,10.0,SSE,6.9,-,N/A,,Scattered Clouds,160,2013-09-03 18:51:00
2:51 PM,100.0,60.1,27,29.90,10.0,Variable,5.8,-,N/A,,Partly Cloudy,0,2013-09-03 19:51:00
3:51 PM,102.0,59.0,24,29.86,10.0,Variable,5.8,-,N/A,,Partly Cloudy,0,2013-09-03 20:51:00
4:51 PM,100.0,57.9,25,29.84,10.0,South,5.8,-,N/A,,Clear,190,2013-09-03 21:51:00
5:51 PM,99.0,60.1,28,29.84,10.0,NNW,4.6,-,N/A,,Mostly Cloudy,330,2013-09-03 22:51:00
6:51 PM,98.1,63.0,31,29.84,10.0,Calm,Calm,-,N/A,,Clear,0,2013-09-03 23:51:00
7:51 PM,96.1,62.1,32,29.85,10.0,Calm,Calm,-,N/A,,Partly Cloudy,0,2013-09-04 00:51:00
8:51 PM,91.9,63.0,38,29.86,10.0,Calm,Calm,-,N/A,,Clear,0,2013-09-04 01:51:00
9:51 PM,91.0,62.1,38,29.89,10.0,SE,9.2,-,N/A,,Partly Cloudy,140,2013-09-04 02:51:00
10:51 PM,88.0,64.0,45,29.89,10.0,Calm,Calm,-,N/A,,Clear,0,2013-09-04 03:51:00
11:51 PM,87.1,64.0,46,29.90,10.0,Variable,4.6,-,N/A,,Scattered Clouds,0,2013-09-04 04:51:00